| time (UTC) | temp F | wind direction | speed knots | gust knots | rain 1hr in | rain 24hr in | rain mn in | humidity % | barometer mb |
| 20260504014638 | 55 | 262 | 9.6 | 11.3 | 0.00 | 0.07 | 0.07 | 64 | 1007.5 |
| 20260504014136 | 54 | 310 | 7.8 | 8.7 | 0.00 | 0.07 | 0.07 | 64 | 1007.1 |
| 20260504013634 | 54 | 214 | 4.3 | 5.2 | 0.00 | 0.07 | 0.07 | 65 | 1007.5 |
| 20260504013130 | 0 | 0.0 | 0.0 | 0.00 | 0.00 | 0.00 | 1007.1 | ||
| 20260504012627 | 0 | 0.0 | 0.0 | 0.00 | 0.00 | 0.00 | 1007.5 | ||
| 20260504012125 | 0 | 0.0 | 0.0 | 0.00 | 0.00 | 0.00 | 1007.1 | ||
| 20260504011622 | 0 | 0.0 | 0.0 | 0.00 | 0.00 | 0.00 | 1007.1 | ||
| 20260504011118 | 0 | 0.0 | 0.0 | 0.00 | 0.00 | 0.00 | 1007.1 | ||
| 20260504010614 | 0 | 0.0 | 0.0 | 0.00 | 0.00 | 0.00 | 1007.5 | ||
| 20260504010110 | 0 | 0.0 | 0.0 | 0.00 | 0.00 | 0.00 | 1007.1 | ||
| 20260504005607 | 0 | 0.0 | 0.0 | 0.00 | 0.00 | 0.00 | 1007.5 | ||
| 20260504005104 | 0 | 0.0 | 0.0 | 0.00 | 0.00 | 0.00 | 1007.1 | ||
| 20260504004602 | 0 | 0.0 | 0.0 | 0.00 | 0.00 | 0.00 | 1007.1 | ||
| 20260504004059 | 0 | 0.0 | 0.0 | 0.00 | 0.00 | 0.00 | 1007.1 | ||
| 20260504003555 | 0 | 0.0 | 0.0 | 0.00 | 0.00 | 0.00 | 1007.5 | ||
| 20260504003052 | 0 | 0.0 | 0.0 | 0.00 | 0.00 | 0.00 | 1007.1 | ||
| 20260504002549 | 0 | 0.0 | 0.0 | 0.00 | 0.00 | 0.00 | 1007.1 | ||
| 20260504002047 | 0 | 0.0 | 0.0 | 0.00 | 0.00 | 0.00 | 1007.5 | ||
| 20260504001544 | 0 | 0.0 | 0.0 | 0.00 | 0.00 | 0.00 | 1007.5 | ||
| 20260504001040 | 0 | 0.0 | 0.0 | 0.00 | 0.00 | 0.00 | 1007.5 | ||
| 20260504000537 | 49 | 275 | 2.6 | 2.6 | 0.00 | 0.07 | 0.07 | 98 | 1007.5 |
| 20260504000035 | 49 | 275 | 2.6 | 2.6 | 0.02 | 0.07 | 0.07 | 98 | 1007.1 |
| 20260503235533 | 49 | 275 | 2.6 | 2.6 | 0.02 | 0.07 | 0.07 | 98 | 1007.5 |
| 20260503235029 | 49 | 195 | 0.9 | 1.7 | 0.02 | 0.07 | 0.07 | 99 | 1007.5 |
| 20260503234527 | 49 | 195 | 0.9 | 1.7 | 0.02 | 0.07 | 0.07 | 99 | 1007.5 |
| 20260503234025 | 49 | 220 | 1.7 | 1.7 | 0.01 | 0.06 | 0.06 | 99 | 1007.5 |
| 20260503233521 | 49 | 223 | 0.9 | 0.9 | 0.01 | 0.06 | 0.06 | 99 | 1008.1 |
| 20260503233017 | 49 | 209 | 0.9 | 1.7 | 0.01 | 0.06 | 0.06 | 99 | 1007.8 |
| 20260503232514 | 49 | 228 | 0.0 | 0.0 | 0.01 | 0.06 | 0.06 | 99 | 1007.8 |
| 20260503232012 | 49 | 230 | 0.0 | 0.0 | 0.01 | 0.06 | 0.06 | 99 | 1008.1 |
| 20260503231510 | 49 | 231 | 0.9 | 1.7 | 0.01 | 0.06 | 0.06 | 98 | 1008.1 |
| 20260503231006 | 49 | 233 | 0.0 | 0.0 | 0.01 | 0.06 | 0.06 | 98 | 1008.1 |
| 20260503230503 | 49 | 233 | 0.0 | 0.0 | 0.01 | 0.06 | 0.06 | 97 | 1008.5 |
| 20260503230000 | 49 | 233 | 0.0 | 0.0 | 0.05 | 0.05 | 0.05 | 97 | 1008.5 |
| 20260503225457 | 49 | 233 | 0.0 | 0.0 | 0.05 | 0.05 | 0.05 | 96 | 1008.5 |
| 20260503224952 | 49 | 233 | 0.9 | 0.9 | 0.05 | 0.05 | 0.05 | 95 | 1008.1 |
| 20260503224449 | 49 | 252 | 1.7 | 1.7 | 0.05 | 0.05 | 0.05 | 94 | 1008.5 |
| 20260503223947 | 49 | 222 | 1.7 | 1.7 | 0.04 | 0.04 | 0.04 | 93 | 1008.5 |
| 20260503223445 | 50 | 243 | 0.9 | 0.9 | 0.04 | 0.04 | 0.04 | 92 | 1008.5 |
| 20260503222940 | 50 | 328 | 3.5 | 4.3 | 0.03 | 0.03 | 0.03 | 91 | 1008.5 |
| 20260503222439 | 50 | 247 | 2.6 | 2.6 | 0.02 | 0.02 | 0.02 | 89 | 1008.5 |
| 20260503221937 | 51 | 252 | 2.6 | 4.3 | 0.02 | 0.02 | 0.02 | 88 | 1008.5 |
| 20260503221435 | 51 | 283 | 4.3 | 5.2 | 0.01 | 0.01 | 0.01 | 87 | 1008.5 |
| 20260503220931 | 52 | 305 | 6.1 | 7.8 | 0.01 | 0.01 | 0.01 | 85 | 1008.5 |
| 20260503220428 | 52 | 225 | 4.3 | 7.0 | 0.00 | 0.00 | 0.00 | 84 | 1008.5 |
| 20260503215925 | 53 | 273 | 7.0 | 8.7 | 0.00 | 0.00 | 0.00 | 81 | 1008.5 |
| 20260503215422 | 54 | 263 | 8.7 | 12.2 | 0.00 | 0.00 | 0.00 | 78 | 1008.5 |
| 20260503214920 | 55 | 283 | 9.6 | 12.2 | 0.00 | 0.00 | 0.00 | 72 | 1008.1 |
| 20260503214417 | 56 | 274 | 8.7 | 9.6 | 0.00 | 0.00 | 0.00 | 68 | 1008.1 |
| 20260503213914 | 56 | 265 | 3.5 | 5.2 | 0.00 | 0.00 | 0.00 | 67 | 1007.8 |
| 20260503213412 | 56 | 279 | 6.1 | 7.0 | 0.00 | 0.00 | 0.00 | 65 | 1007.5 |
| 20260503212908 | 56 | 273 | 7.0 | 7.0 | 0.00 | 0.00 | 0.00 | 64 | 1007.5 |
| 20260503212406 | 56 | 225 | 2.6 | 4.3 | 0.00 | 0.00 | 0.00 | 64 | 1007.5 |
| 20260503211903 | 56 | 245 | 4.3 | 6.1 | 0.00 | 0.00 | 0.00 | 64 | 1007.5 |
| 20260503211400 | 55 | 277 | 7.8 | 12.2 | 0.00 | 0.00 | 0.00 | 63 | 1007.5 |
| 20260503210855 | 55 | 220 | 3.5 | 5.2 | 0.00 | 0.00 | 0.00 | 64 | 1007.5 |
| 20260503210353 | 55 | 236 | 3.5 | 4.3 | 0.00 | 0.00 | 0.00 | 64 | 1007.5 |
| 20260503205847 | 55 | 242 | 2.6 | 2.6 | 0.00 | 0.00 | 0.00 | 64 | 1007.5 |
| 20260503205344 | 55 | 249 | 3.5 | 6.1 | 0.00 | 0.00 | 0.00 | 66 | 1007.5 |
| 20260503204840 | 55 | 232 | 2.6 | 6.1 | 0.00 | 0.00 | 0.00 | 64 | 1007.8 |
| 20260503204338 | 55 | 250 | 5.2 | 7.8 | 0.00 | 0.00 | 0.00 | 64 | 1007.5 |
| 20260503203835 | 55 | 217 | 6.1 | 7.8 | 0.00 | 0.00 | 0.00 | 64 | 1007.8 |
| 20260503203332 | 55 | 258 | 7.8 | 8.7 | 0.00 | 0.00 | 0.00 | 64 | 1007.5 |
| 20260503202829 | 55 | 249 | 4.3 | 7.0 | 0.00 | 0.00 | 0.00 | 64 | 1007.8 |
| 20260503202328 | 56 | 261 | 5.2 | 6.1 | 0.00 | 0.00 | 0.00 | 64 | 1007.8 |
| 20260503201826 | 56 | 199 | 4.3 | 6.1 | 0.00 | 0.00 | 0.00 | 64 | 1007.8 |
| 20260503201322 | 56 | 226 | 2.6 | 2.6 | 0.00 | 0.00 | 0.00 | 64 | 1007.8 |
| 20260503200820 | 56 | 189 | 2.6 | 4.3 | 0.00 | 0.00 | 0.00 | 65 | 1007.8 |
| 20260503200315 | 56 | 261 | 4.3 | 6.1 | 0.00 | 0.00 | 0.00 | 64 | 1007.8 |
| 20260503195813 | 56 | 261 | 2.6 | 7.0 | 0.00 | 0.00 | 0.00 | 62 | 1008.1 |
| 20260503195309 | 56 | 236 | 2.6 | 5.2 | 0.00 | 0.00 | 0.00 | 63 | 1008.1 |
| 20260503194807 | 57 | 255 | 6.1 | 9.6 | 0.00 | 0.00 | 0.00 | 60 | 1008.5 |
| 20260503194302 | 57 | 227 | 1.7 | 2.6 | 0.00 | 0.00 | 0.00 | 61 | 1008.1 |
| 20260503193759 | 57 | 188 | 2.6 | 2.6 | 0.00 | 0.00 | 0.00 | 59 | 1008.5 |
| 20260503193255 | 58 | 189 | 4.3 | 5.2 | 0.00 | 0.00 | 0.00 | 58 | 1008.5 |
| 20260503192751 | 59 | 231 | 2.6 | 4.3 | 0.00 | 0.00 | 0.00 | 58 | 1008.5 |
| 20260503192246 | 59 | 229 | 3.5 | 6.1 | 0.00 | 0.00 | 0.00 | 59 | 1008.5 |
| 20260503191743 | 57 | 248 | 2.6 | 2.6 | 0.00 | 0.00 | 0.00 | 58 | 1008.8 |
| 20260503191240 | 57 | 199 | 1.7 | 1.7 | 0.00 | 0.00 | 0.00 | 59 | 1008.8 |
| 20260503190737 | 57 | 236 | 2.6 | 2.6 | 0.00 | 0.00 | 0.00 | 59 | 1009.2 |
| 20260503190234 | 57 | 253 | 4.3 | 7.8 | 0.00 | 0.00 | 0.00 | 59 | 1008.8 |
| 20260503185731 | 57 | 218 | 4.3 | 7.8 | 0.00 | 0.00 | 0.00 | 57 | 1009.2 |
| 20260503185226 | 56 | 211 | 4.3 | 6.1 | 0.00 | 0.00 | 0.00 | 57 | 1009.2 |
| 20260503184721 | 56 | 227 | 3.5 | 4.3 | 0.00 | 0.00 | 0.00 | 56 | 1009.2 |
| 20260503184218 | 56 | 221 | 5.2 | 6.1 | 0.00 | 0.00 | 0.00 | 58 | 1009.2 |
| 20260503183714 | 57 | 278 | 4.3 | 5.2 | 0.00 | 0.00 | 0.00 | 56 | 1009.2 |
| 20260503183211 | 57 | 212 | 2.6 | 4.3 | 0.00 | 0.00 | 0.00 | 54 | 1009.5 |
| 20260503182710 | 57 | 242 | 4.3 | 6.1 | 0.00 | 0.00 | 0.00 | 53 | 1009.5 |
| 20260503182208 | 57 | 225 | 3.5 | 5.2 | 0.00 | 0.00 | 0.00 | 54 | 1009.5 |
| 20260503181704 | 57 | 217 | 4.3 | 5.2 | 0.00 | 0.00 | 0.00 | 53 | 1009.5 |
| 20260503181201 | 57 | 269 | 6.1 | 9.6 | 0.00 | 0.00 | 0.00 | 56 | 1009.8 |
| 20260503180658 | 55 | 253 | 6.1 | 7.0 | 0.00 | 0.00 | 0.00 | 57 | 1009.8 |
| 20260503180156 | 56 | 225 | 9.6 | 11.3 | 0.00 | 0.00 | 0.00 | 56 | 1010.2 |
| 20260503175653 | 55 | 253 | 5.2 | 8.7 | 0.00 | 0.00 | 0.00 | 56 | 1010.2 |
| 20260503175150 | 54 | 281 | 7.8 | 8.7 | 0.00 | 0.00 | 0.00 | 57 | 1010.2 |
| 20260503174646 | 54 | 246 | 11.3 | 13.9 | 0.00 | 0.00 | 0.00 | 56 | 1010.2 |
| 20260503174144 | 54 | 221 | 4.3 | 5.2 | 0.00 | 0.00 | 0.00 | 59 | 1010.2 |
| 20260503173639 | 53 | 256 | 7.8 | 9.6 | 0.00 | 0.00 | 0.00 | 57 | 1010.5 |
| 20260503173135 | 54 | 264 | 6.1 | 7.0 | 0.00 | 0.00 | 0.00 | 55 | 1010.5 |
| 20260503172632 | 55 | 262 | 8.7 | 9.6 | 0.00 | 0.00 | 0.00 | 51 | 1010.2 |
| 20260503172130 | 55 | 233 | 4.3 | 6.1 | 0.00 | 0.00 | 0.00 | 53 | 1010.5 |
| 20260503171626 | 54 | 246 | 2.6 | 6.1 | 0.00 | 0.00 | 0.00 | 53 | 1010.5 |
| 20260503171123 | 54 | 237 | 5.2 | 7.0 | 0.00 | 0.00 | 0.00 | 53 | 1010.5 |
| 20260503170621 | 54 | 251 | 5.2 | 6.1 | 0.00 | 0.00 | 0.00 | 50 | 1010.8 |
| 20260503170117 | 55 | 261 | 5.2 | 7.8 | 0.00 | 0.00 | 0.00 | 56 | 1010.8 |
| 20260503151012 | 51 | 296 | 7.0 | 7.8 | 0.00 | 0.00 | 0.00 | 56 | 1012.0 |
| 20260503150509 | 51 | 215 | 3.5 | 5.2 | 0.00 | 0.00 | 0.00 | 59 | 1012.0 |
| 20260503131402 | 48 | 238 | 2.6 | 4.3 | 0.00 | 0.00 | 0.00 | 74 | 1012.6 |
| 20260503130859 | 47 | 290 | 5.2 | 6.1 | 0.00 | 0.00 | 0.00 | 73 | 1012.3 |
| 20260503130356 | 47 | 268 | 2.6 | 5.2 | 0.00 | 0.00 | 0.00 | 74 | 1012.3 |
| 20260503110755 | 37 | 219 | 0.0 | 0.9 | 0.00 | 0.00 | 0.00 | 85 | 1012.6 |
| 20260503110252 | 36 | 225 | 0.0 | 0.0 | 0.00 | 0.00 | 0.00 | 85 | 1012.6 |
| 20260503100219 | 33 | 239 | 0.0 | 0.0 | 0.00 | 0.00 | 0.00 | 87 | 1012.6 |
| 20260503090138 | 30 | 238 | 0.0 | 0.0 | 0.00 | 0.00 | 0.00 | 93 | 1013.0 |
| 20260503081608 | 30 | 241 | 0.0 | 0.0 | 0.00 | 0.00 | 0.00 | 93 | 1013.0 |
| 20260503081105 | 31 | 241 | 0.0 | 0.0 | 0.00 | 0.00 | 0.00 | 93 | 1013.3 |
| 20260503080601 | 31 | 241 | 0.0 | 0.0 | 0.00 | 0.00 | 0.00 | 92 | 1013.0 |
| 20260503072540 | 32 | 241 | 0.0 | 0.0 | 0.00 | 0.00 | 0.00 | 90 | 1013.0 |
| 20260503072037 | 33 | 241 | 0.0 | 0.0 | 0.00 | 0.00 | 0.00 | 91 | 1013.0 |
| 20260503071534 | 33 | 241 | 0.0 | 0.0 | 0.00 | 0.00 | 0.00 | 91 | 1013.0 |
| 20260503071031 | 33 | 242 | 0.0 | 0.0 | 0.00 | 0.00 | 0.00 | 91 | 1013.3 |
| 20260503070527 | 33 | 241 | 0.0 | 0.0 | 0.00 | 0.00 | 0.00 | 91 | 1013.0 |
| 20260503054945 | 34 | 227 | 0.0 | 0.0 | 0.00 | 0.00 | 0.00 | 93 | 1013.3 |
| 20260503054441 | 34 | 227 | 0.0 | 0.0 | 0.00 | 0.00 | 0.00 | 93 | 1013.3 |
| 20260503053939 | 34 | 227 | 0.0 | 0.0 | 0.00 | 0.00 | 0.00 | 93 | 1013.3 |
| 20260503053437 | 34 | 227 | 0.0 | 0.0 | 0.00 | 0.00 | 0.00 | 93 | 1013.3 |
| 20260503052933 | 34 | 227 | 0.0 | 0.0 | 0.00 | 0.00 | 0.00 | 93 | 1013.3 |
| 20260503052431 | 34 | 227 | 0.0 | 0.0 | 0.00 | 0.00 | 0.00 | 93 | 1013.3 |
| 20260503051927 | 34 | 227 | 0.0 | 0.0 | 0.00 | 0.00 | 0.00 | 93 | 1013.7 |
| 20260503051423 | 34 | 227 | 0.0 | 0.0 | 0.00 | 0.00 | 0.00 | 93 | 1013.7 |
| 20260503050920 | 34 | 227 | 0.0 | 0.0 | 0.00 | 0.00 | 0.00 | 93 | 1013.7 |
| 20260503050416 | 34 | 227 | 0.0 | 0.0 | 0.00 | 0.00 | 0.00 | 93 | 1013.7 |
| 20260503045914 | 34 | 227 | 0.0 | 0.0 | 0.00 | 0.00 | 0.00 | 93 | 1013.7 |
| 20260503045411 | 34 | 227 | 0.0 | 0.0 | 0.00 | 0.00 | 0.00 | 92 | 1013.7 |
| 20260503044908 | 34 | 227 | 0.0 | 0.0 | 0.00 | 0.00 | 0.00 | 92 | 1014.0 |
| 20260503044405 | 34 | 227 | 0.0 | 0.0 | 0.00 | 0.00 | 0.00 | 91 | 1013.7 |
| 20260503043902 | 34 | 227 | 0.0 | 0.0 | 0.00 | 0.00 | 0.00 | 91 | 1013.7 |
| 20260503043359 | 34 | 227 | 0.0 | 0.0 | 0.00 | 0.00 | 0.00 | 90 | 1013.7 |
| 20260503042855 | 35 | 227 | 0.0 | 0.0 | 0.00 | 0.00 | 0.00 | 90 | 1013.7 |
| 20260503042351 | 35 | 227 | 0.0 | 0.0 | 0.00 | 0.00 | 0.00 | 90 | 1013.7 |
| 20260503041848 | 35 | 227 | 0.0 | 0.0 | 0.00 | 0.00 | 0.00 | 90 | 1014.0 |
| 20260503041345 | 35 | 227 | 0.0 | 0.0 | 0.00 | 0.00 | 0.00 | 89 | 1014.0 |
| 20260503040843 | 35 | 227 | 0.0 | 0.0 | 0.00 | 0.00 | 0.00 | 89 | 1014.0 |
| 20260503040340 | 35 | 227 | 0.0 | 0.0 | 0.00 | 0.00 | 0.00 | 88 | 1014.0 |
| 20260503035837 | 35 | 227 | 0.0 | 0.0 | 0.00 | 0.00 | 0.00 | 88 | 1014.0 |
| 20260503035334 | 36 | 227 | 0.0 | 0.0 | 0.00 | 0.00 | 0.00 | 88 | 1014.0 |
| 20260503034831 | 36 | 227 | 0.0 | 0.0 | 0.00 | 0.00 | 0.00 | 87 | 1014.0 |
| 20260503034329 | 36 | 227 | 0.0 | 0.0 | 0.00 | 0.00 | 0.00 | 87 | 1014.0 |
| 20260503033826 | 36 | 227 | 0.0 | 0.0 | 0.00 | 0.00 | 0.00 | 85 | 1014.0 |
| 20260503033323 | 36 | 227 | 0.0 | 0.0 | 0.00 | 0.00 | 0.00 | 85 | 1014.0 |
| 20260503032821 | 37 | 227 | 0.0 | 0.0 | 0.00 | 0.00 | 0.00 | 84 | 1014.0 |
| 20260503032320 | 37 | 227 | 0.0 | 0.0 | 0.00 | 0.00 | 0.00 | 84 | 1014.0 |
| 20260503031817 | 37 | 227 | 0.0 | 0.0 | 0.00 | 0.00 | 0.00 | 83 | 1014.0 |
| 20260503031315 | 38 | 227 | 0.0 | 0.0 | 0.00 | 0.00 | 0.00 | 82 | 1014.0 |
| 20260503030810 | 39 | 227 | 0.0 | 0.0 | 0.00 | 0.00 | 0.00 | 81 | 1014.0 |
| 20260503030307 | 39 | 227 | 0.0 | 0.0 | 0.00 | 0.00 | 0.00 | 81 | 1014.0 |
| 20260503025804 | 40 | 227 | 0.0 | 0.0 | 0.00 | 0.00 | 0.00 | 80 | 1014.0 |
| 20260503025304 | 40 | 226 | 0.0 | 0.9 | 0.00 | 0.00 | 0.00 | 80 | 1014.0 |
| 20260503024758 | 40 | 229 | 0.0 | 0.0 | 0.00 | 0.00 | 0.00 | 81 | 1014.0 |
| 20260503024255 | 40 | 230 | 0.0 | 0.0 | 0.00 | 0.00 | 0.00 | 80 | 1014.0 |
| 20260503023752 | 40 | 230 | 0.0 | 0.0 | 0.00 | 0.00 | 0.00 | 80 | 1014.3 |
| 20260503023249 | 40 | 230 | 0.0 | 0.0 | 0.00 | 0.00 | 0.00 | 79 | 1014.3 |
| 20260503022745 | 40 | 230 | 0.0 | 0.0 | 0.00 | 0.00 | 0.00 | 80 | 1014.3 |
| 20260503022240 | 40 | 230 | 0.0 | 0.0 | 0.00 | 0.00 | 0.00 | 80 | 1014.0 |
| 20260503021737 | 40 | 230 | 0.0 | 0.0 | 0.00 | 0.00 | 0.00 | 79 | 1014.3 |
| 20260503021233 | 40 | 230 | 0.0 | 0.0 | 0.00 | 0.00 | 0.00 | 79 | 1014.3 |
| 20260503020731 | 40 | 230 | 0.0 | 0.0 | 0.00 | 0.00 | 0.00 | 79 | 1014.3 |
| 20260503020228 | 40 | 232 | 0.0 | 0.0 | 0.00 | 0.00 | 0.00 | 78 | 1014.0 |
| 20260503015724 | 41 | 232 | 0.0 | 0.0 | 0.00 | 0.00 | 0.00 | 78 | 1014.3 |
| 20260503015221 | 41 | 237 | 0.9 | 0.9 | 0.00 | 0.00 | 0.00 | 77 | 1014.3 |